Lakeville, MN

7:10 PM CST on February 27, 2017 (GMT -0600)
Airlake

Weather History for KLVN - January, 2013

Change the Weather History Date:

Tuesday, January 8, 2013

  Actual Average Record
Temperature  
Mean Temperature 20 °F -  
Max Temperature 33 °F 18 °F 55 °F (2003)
Min Temperature 8 °F 0 °F -24 °F (1970)
Degree Days  
Heating Degree Days 44    
Moisture  
Dew Point 20 °F    
Average Humidity 89    
Maximum Humidity 100    
Minimum Humidity 80    
Precipitation  
Precipitation 0.00 in - - ()
Sea Level Pressure  
Sea Level Pressure 29.87 in    
Wind  
Wind Speed 5 mph (South)    
Max Wind Speed 13 mph    
Max Gust Speed 16 mph    
Visibility 8 miles    
Events Fog    
Averages and records for this station are not official NWS values.
T = Trace of Precipitation, MM = Missing Value Source: NWS Daily Summary

Daily Weather History Graph

Daily Weather History Graph

Search for Another Location

Airport or City:

Trip Planner

Search our weather history database for the weather conditions in past years. The results will help you decide how hot, cold, wet, or windy it might be!

Date:

Astronomy

Jan. 08, 2013 Rise Set
Actual Time 7:49 AM CST 4:50 PM CST
Civil Twilight 7:16 AM CST 5:23 PM CST
Nautical Twilight 6:39 AM CST 6:00 PM CST
Astronomical Twilight 6:04 AM CST 6:35 PM CST
Moon 4:22 AM CST (1/8) 1:53 PM CST (1/8)
Length of Visible Light 10h 07m
Length of Day
9h 01m
Waning Crescent, 13% of the Moon is Illuminated
Jan 8
Waning Crescent
Jan 11
New
Jan 18
First Quarter
Jan 26
Full
Feb 3
Last Quarter

Hourly Weather History & Observations

Time (CST) Temp. Windchill Dew Point Humidity Pressure Visibility Wind Dir Wind Speed Gust Speed Precip Events Conditions
12:10 AM 21.2 °F 12.6 °F 19.4 °F 93% 29.96 in 10.0 mi West 6.9 mph - N/A   Scattered Clouds
12:30 AM 24.8 °F 20.5 °F 21.2 °F 86% 29.96 in 10.0 mi SW 3.5 mph - N/A   Scattered Clouds
12:50 AM 23.0 °F 17.0 °F 19.4 °F 86% 29.96 in 10.0 mi WSW 4.6 mph - N/A   Clear
1:10 AM 21.2 °F - 19.4 °F 93% 29.97 in 10.0 mi Calm Calm - N/A   Clear
1:29 AM 19.4 °F - 19.4 °F 100% 29.97 in 10.0 mi Calm Calm - N/A   Clear
1:50 AM 19.4 °F 12.8 °F 17.6 °F 93% 29.97 in 10.0 mi South 4.6 mph - N/A   Clear
2:10 AM 17.6 °F 10.7 °F 17.6 °F 100% 29.97 in 10.0 mi South 4.6 mph - N/A   Clear
2:29 AM 14.0 °F - 12.2 °F 93% 29.97 in 7.0 mi Calm Calm - N/A   Clear
2:50 AM 14.0 °F 8.2 °F 12.2 °F 93% 29.97 in 4.0 mi South 3.5 mph - N/A   Clear
3:10 AM 14.0 °F 8.2 °F 12.2 °F 93% 29.96 in 5.0 mi South 3.5 mph - N/A   Clear
3:29 AM 10.4 °F - 8.6 °F 92% 29.96 in 4.0 mi Calm Calm - N/A   Clear
3:50 AM 12.2 °F - 10.4 °F 92% 29.96 in 5.0 mi Calm Calm - N/A   Clear
4:10 AM 12.2 °F - 10.4 °F 92% 29.95 in 1.0 mi Calm Calm - N/A   Mist
4:30 AM 12.2 °F - 12.2 °F 100% 29.95 in 1.5 mi Calm Calm - N/A   Mostly Cloudy
4:50 AM 10.4 °F - 8.6 °F 92% 29.95 in 3.0 mi Calm Calm - N/A   Clear
5:10 AM 10.4 °F 4.0 °F 10.4 °F 100% 29.94 in 0.5 mi SSE 3.5 mph - N/A Fog Light Freezing Fog
5:30 AM 8.6 °F - 6.8 °F 92% 29.94 in 5.0 mi Calm Calm - N/A   Clear
5:49 AM 10.4 °F - 8.6 °F 92% 29.94 in 2.5 mi Calm Calm - N/A   Clear
6:10 AM 10.4 °F - 10.4 °F 100% 29.94 in 4.0 mi Calm Calm - N/A   Clear
6:30 AM 12.2 °F 6.1 °F 12.2 °F 100% 29.95 in 7.0 mi South 3.5 mph - N/A   Clear
6:49 AM 12.2 °F 6.1 °F 12.2 °F 100% 29.95 in 7.0 mi SSE 3.5 mph - N/A   Clear
7:30 AM 12.2 °F - 12.2 °F 100% 29.94 in 7.0 mi Calm Calm - N/A   Clear
7:49 AM 12.2 °F - 12.2 °F 100% 29.94 in 7.0 mi Calm Calm - N/A   Clear
8:10 AM 14.0 °F 8.2 °F 12.2 °F 93% 29.94 in 7.0 mi East 3.5 mph - N/A   Clear
8:30 AM 12.2 °F 6.1 °F 12.2 °F 100% 29.94 in 7.0 mi East 3.5 mph - N/A   Clear
8:50 AM 14.0 °F - 12.2 °F 93% 29.93 in 7.0 mi Calm Calm - N/A   Clear
9:10 AM 14.0 °F 8.2 °F 12.2 °F 93% 29.94 in 5.0 mi East 3.5 mph - N/A   Clear
9:29 AM 15.8 °F 8.6 °F 15.8 °F 100% 29.92 in 5.0 mi East 4.6 mph - N/A   Clear
9:50 AM 17.6 °F 12.3 °F 17.6 °F 100% 29.92 in 7.0 mi East 3.5 mph - N/A   Clear
10:10 AM 19.4 °F 14.3 °F 19.4 °F 100% 29.91 in 7.0 mi ESE 3.5 mph - N/A   Clear
10:30 AM 21.2 °F 12.6 °F 21.2 °F 100% 29.89 in 10.0 mi ESE 6.9 mph - N/A   Clear
10:50 AM 23.0 °F 13.9 °F 21.2 °F 93% 29.88 in 10.0 mi SE 8.1 mph - N/A   Clear
11:10 AM 24.8 °F 17.9 °F 21.2 °F 86% 29.88 in 10.0 mi SSE 5.8 mph - N/A   Clear
11:30 AM 26.6 °F 16.8 °F 21.2 °F 80% 29.86 in 10.0 mi SE 10.4 mph - N/A   Clear
11:50 AM 26.6 °F 19.1 °F 21.2 °F 80% 29.84 in 10.0 mi SE 6.9 mph - N/A   Clear
12:10 PM 28.4 °F 22.2 °F 23.0 °F 80% 29.84 in 10.0 mi SE 5.8 mph - N/A   Clear
12:30 PM 28.4 °F 22.2 °F 23.0 °F 80% 29.82 in 10.0 mi SE 5.8 mph - N/A   Clear
12:50 PM 28.4 °F 20.4 °F 24.8 °F 86% 29.80 in 10.0 mi ESE 8.1 mph - N/A   Clear
1:10 PM 30.2 °F 25.4 °F 24.8 °F 80% 29.80 in 10.0 mi SE 4.6 mph - N/A   Clear
1:50 PM 32.0 °F 24.8 °F 26.6 °F 80% 29.78 in 10.0 mi SE 8.1 mph - N/A   Clear
2:10 PM 30.2 °F 22.6 °F 26.6 °F 86% 29.78 in 10.0 mi SSE 8.1 mph - N/A   Clear
2:30 PM 30.2 °F 23.4 °F 26.6 °F 86% 29.78 in 10.0 mi SSE 6.9 mph - N/A   Clear
2:50 PM 32.0 °F 25.6 °F 26.6 °F 80% 29.77 in 10.0 mi SSE 6.9 mph - N/A   Clear
3:10 PM 32.0 °F 26.4 °F 26.6 °F 80% 29.77 in 10.0 mi SSE 5.8 mph - N/A   Clear
3:29 PM 32.0 °F 24.8 °F 26.6 °F 80% 29.77 in 10.0 mi SSE 8.1 mph - N/A   Scattered Clouds
3:50 PM 32.0 °F 22.5 °F 26.6 °F 80% 29.77 in 10.0 mi South 12.7 mph - N/A   Mostly Cloudy
4:10 PM 32.0 °F 24.8 °F 26.6 °F 80% 29.77 in 10.0 mi South 8.1 mph - N/A   Mostly Cloudy
4:29 PM 30.2 °F 22.6 °F 26.6 °F 86% 29.76 in 10.0 mi South 8.1 mph - N/A   Mostly Cloudy
4:50 PM 30.2 °F 23.4 °F 26.6 °F 86% 29.76 in 10.0 mi South 6.9 mph - N/A   Scattered Clouds
5:10 PM 30.2 °F 21.9 °F 26.6 °F 86% 29.76 in 10.0 mi South 9.2 mph - N/A   Clear
5:29 PM 32.0 °F 25.6 °F 26.6 °F 80% 29.76 in 10.0 mi SSW 6.9 mph - N/A   Clear
5:50 PM 33.8 °F 29.6 °F 28.4 °F 81% 29.76 in 10.0 mi SW 4.6 mph - N/A   Clear
6:10 PM 33.8 °F 27.7 °F 28.4 °F 81% 29.76 in 10.0 mi SW 6.9 mph - N/A   Clear
6:29 PM 32.0 °F 26.4 °F 28.4 °F 87% 29.77 in 10.0 mi SW 5.8 mph - N/A   Clear
6:50 PM 32.0 °F 24.8 °F 26.6 °F 80% 29.77 in 10.0 mi SW 8.1 mph - N/A   Clear
7:10 PM 30.2 °F 23.4 °F 26.6 °F 86% 29.78 in 10.0 mi SW 6.9 mph - N/A   Clear
7:29 PM 30.2 °F 22.6 °F 26.6 °F 86% 29.80 in 10.0 mi WSW 8.1 mph 16.1 mph N/A   Clear
7:50 PM 30.2 °F 22.6 °F 26.6 °F 86% 29.80 in 10.0 mi WSW 8.1 mph 16.1 mph N/A   Clear
8:10 PM 28.4 °F 19.7 °F 24.8 °F 86% 29.80 in 10.0 mi WSW 9.2 mph - N/A   Clear
8:29 PM 28.4 °F 19.7 °F 24.8 °F 86% 29.81 in 10.0 mi WSW 9.2 mph - N/A   Clear
8:50 PM 28.4 °F 19.7 °F 24.8 °F 86% 29.82 in 10.0 mi WSW 9.2 mph - N/A   Scattered Clouds
9:10 PM 28.4 °F 20.4 °F 24.8 °F 86% 29.82 in 10.0 mi WSW 8.1 mph - N/A   Mostly Cloudy
9:29 PM 28.4 °F 19.7 °F 24.8 °F 86% 29.83 in 10.0 mi WSW 9.2 mph 16.1 mph N/A   Overcast
9:50 PM 28.4 °F 18.0 °F 24.8 °F 86% 29.84 in 10.0 mi WSW 12.7 mph - N/A   Overcast
10:10 PM 28.4 °F 19.7 °F 24.8 °F 86% 29.85 in 10.0 mi WSW 9.2 mph - N/A   Mostly Cloudy
10:29 PM 28.4 °F 19.7 °F 24.8 °F 86% 29.87 in 10.0 mi WSW 9.2 mph - N/A   Scattered Clouds
11:10 PM 28.4 °F 21.2 °F 24.8 °F 86% 29.89 in 10.0 mi West 6.9 mph 16.1 mph N/A   Clear
11:50 PM 28.4 °F 19.7 °F 24.8 °F 86% 29.91 in 10.0 mi WSW 9.2 mph - N/A   Clear